Location: Huntsville
(41.2590°N, 111.7678°W)
Time: 07:12:19
(UTC+00:00)

Vanguard 3 - Pass Details

Date: 14 June 2021
Orbit: 508 x 3261 km, 33.4° (Epoch: 29 July)

Event Time Altitude Azimuth Distance (km) Brightness Sun altitude
Rises 17:09:00 0° 244° (WSW) 2,905 9.8 56.0°
Reaches altitude 10° 17:11:02 10° 236° (SW) 2,169 9.3 56.4°
Maximum altitude 17:15:40 39° 167° (SSE) 1,360 9.3 57.2°
Drops below altitude 10° 17:23:09 10° 102° (ESE) 3,514 11.1 58.4°
Sets 17:27:20 0° 96° (E) 4,985 11.6 59.2°
